User: anonymous   Login
Location: Unspecified
(0.0000°N, 0.0000°E)
Time: 07:31:01
(UTC+00:00)
Language:

Orbcomm D8 (FM36) - Orbit

View from above orbital plane
View from above orbital plane
View from above satellite
View from above satellite

Ground track
Ground track

The orbit data is extracted from the following two-line orbital elements,

1 25984U 99065E   17148.71001981 +.00000077 +00000-0 +79585-4 0  9997
2 25984 045.0381 251.9290 0001003 083.0674 277.0286 14.32484880912434
Epoch (UTC): 28 May 2017 17:02:25
Eccentricity: 0.0001003
inclination: 45.0381°
perigee height: 783 km
apogee height: 784 km
right ascension of ascending node: 251.9290°
argument of perigee: 83.0674°
revolutions per day: 14.32484880
mean anomaly at epoch: 277.0286°
orbit number at epoch: 91243

The dashed part of the orbit path shows where the satellite is in the earth's shadow,  

DLR